Погода в Боровичах

Россия / Псковская область     57°57′21″N   29°38′30″E
темп.,
°C
ветер,
м/с
пор.,
м/с
влажн.,
%
обл.,
%
осадки,
мм/ч
давл.,
гПа
погр.,
м
17 апреля, сб
сб1700:00+8всв41267100 0.0 1025493
03:00+6всв4126872 0.0 1025432
06:00+5св41276100 0.0 1025428
09:00+8всв51069100 0.0 1026514
12:00+12всв576292 0.0 1026868
15:00+14всв5757100 0.0 10261124
18:00+14всв495650 0.0 10251122
21:00+10св3126618 0.0 1025349
18 апреля, вс
вс1800:00+8св412654 0.0 1026415
03:00+6св412741 0.0 1026363
06:00+4св412822 0.0 1026363
09:00+8всв59630 0.0 1027543
12:00+12всв58464 0.0 10261304
15:00+14всв58385 0.0 10261769
18:00+13всв47435 0.0 10251742
21:00+8св311595 0.0 1026247
19 апреля, пн
пн1900:00+6всв311700 0.0 1027289
03:00+5св39805 0.0 1027262
06:00+3св38905 0.0 1028209
09:00+8всв47695 0.0 1028488
12:00+12всв46555 0.0 10271221
15:00+13всв46469 0.0 10261752
18:00+13всв454722 0.0 10251503
21:00+8вюв377185 0.0 1025266
20 апреля, вт
вт2000:00+5всв28795 0.0 1025224
03:00+5всв3878100 0.0 1024283
06:00+6всв3874100 0.0 1022355
09:00+6всв3972100 0.0 1021588
12:00+10всв464953 0.0 10191467
15:00+12всв563985 0.0 10171865
18:00+11всв474890 0.0 10151709
21:00+8всв5965100 0.0 1013808
21 апреля, ср
ср2100:00+5св51093100 0.6 1009865
03:00+4св51396100 4.7 1005886
06:00+3св51197100 3.6 1001766
09:00+3св4997100 5.3 999607
12:00+3ссв3897100 1.9 997513
15:00+4с3496100 4.7 996414
18:00+4зсз3597100 0.8 997592
21:00+2з4897100 1.6 999433